Time,TemperatureF,DewpointF,PressureIn,WindDirection,WindDirectionDegrees,WindSpeedMPH,WindSpeedGustMPH,Humidity,HourlyPrecipIn,Conditions,Clouds,dailyrainin,SoftwareType,DateUTC
2013-06-16 00:02:00,66.0,-99.9,29.99,West,270,20.0,30.0,-999,0.04,,,0.05,,2013-06-16 05:02:00,
2013-06-16 00:12:00,66.0,-99.9,29.97,West,270,20.0,33.0,-999,0.08,,,0.09,,2013-06-16 05:12:00,
2013-06-16 00:22:00,66.0,-99.9,29.98,West,270,14.0,36.0,-999,0.08,,,0.10,,2013-06-16 05:22:00,
2013-06-16 00:34:00,65.0,-99.9,29.98,West,270,13.0,31.0,-999,0.01,,,0.12,,2013-06-16 05:34:00,
2013-06-16 00:43:00,65.0,-99.9,29.98,West,270,8.0,28.0,-999,0.02,,,0.14,,2013-06-16 05:43:00,
2013-06-16 00:52:00,66.0,-99.9,29.97,West,270,8.0,18.0,-999,0.01,,,0.14,,2013-06-16 05:52:00,
2013-06-16 01:02:00,66.0,-99.9,29.97,WSW,248,5.0,14.0,-999,0.09,,,0.14,,2013-06-16 06:02:00,
2013-06-16 01:12:00,66.0,-99.9,29.97,WSW,248,6.0,12.0,-999,0.05,,,0.14,,2013-06-16 06:12:00,
2013-06-16 01:23:00,67.0,-99.9,29.96,West,270,6.0,10.0,-999,0.04,,,0.14,,2013-06-16 06:23:00,
2013-06-16 01:33:00,67.0,-99.9,29.95,West,270,0.0,9.0,-999,0.02,,,0.14,,2013-06-16 06:33:00,
2013-06-16 01:43:00,67.0,-99.9,29.94,West,270,0.0,0.0,-999,0.00,,,0.14,,2013-06-16 06:43:00,
2013-06-16 01:52:00,67.0,-99.9,29.95,West,270,0.0,0.0,-999,0.00,,,0.14,,2013-06-16 06:52:00,
2013-06-16 02:01:00,67.0,-99.9,29.93,SW,225,8.0,9.0,-999,0.00,,,0.14,,2013-06-16 07:01:00,
2013-06-16 02:12:00,67.0,-99.9,29.92,WSW,248,7.0,12.0,-999,0.00,,,0.14,,2013-06-16 07:12:00,
2013-06-16 02:23:00,67.0,-99.9,29.91,SW,225,5.0,9.0,-999,0.00,,,0.14,,2013-06-16 07:23:00,
2013-06-16 02:33:00,67.0,-99.9,29.91,SW,225,5.0,9.0,-999,0.00,,,0.14,,2013-06-16 07:33:00,
2013-06-16 02:43:00,67.0,-99.9,29.90,SW,225,2.0,6.0,-999,0.00,,,0.14,,2013-06-16 07:43:00,
2013-06-16 02:53:00,67.0,-99.9,29.91,SW,225,0.0,0.0,-999,0.00,,,0.14,,2013-06-16 07:53:00,
2013-06-16 03:02:00,67.0,-99.9,29.91,SW,225,0.0,0.0,-999,0.00,,,0.14,,2013-06-16 08:02:00,
2013-06-16 03:12:00,67.0,-99.9,29.90,SW,225,0.0,0.0,-999,0.00,,,0.14,,2013-06-16 08:12:00,
2013-06-16 03:22:00,67.0,-99.9,29.90,SW,225,0.0,0.0,-999,0.00,,,0.14,,2013-06-16 08:22:00,
2013-06-16 03:34:00,67.0,-99.9,29.91,SW,225,0.0,0.0,-999,0.00,,,0.14,,2013-06-16 08:34:00,
2013-06-16 03:44:00,67.0,-99.9,29.92,SW,225,0.0,0.0,-999,0.01,,,0.14,,2013-06-16 08:44:00,
2013-06-16 03:54:00,67.0,-99.9,29.91,SW,225,0.0,0.0,-999,0.01,,,0.15,,2013-06-16 08:54:00,
2013-06-16 04:02:00,67.0,-99.9,29.92,SW,225,0.0,0.0,-999,0.01,,,0.15,,2013-06-16 09:02:00,
2013-06-16 04:11:00,67.0,-99.9,29.91,SW,225,0.0,0.0,-999,0.01,,,0.15,,2013-06-16 09:11:00,
2013-06-16 04:22:00,67.0,-99.9,29.91,SW,225,0.0,0.0,-999,0.01,,,0.15,,2013-06-16 09:22:00,
2013-06-16 04:33:00,67.0,-99.9,29.91,SW,225,0.0,0.0,-999,0.01,,,0.15,,2013-06-16 09:33:00,
2013-06-16 04:43:00,67.0,-99.9,29.91,SW,225,0.0,0.0,-999,0.00,,,0.15,,2013-06-16 09:43:00,
2013-06-16 04:52:00,67.0,-99.9,29.91,SW,225,0.0,0.0,-999,0.00,,,0.15,,2013-06-16 09:52:00,
2013-06-16 05:02:00,67.0,-99.9,29.92,SW,225,0.0,0.0,-999,0.00,,,0.15,,2013-06-16 10:02:00,
2013-06-16 05:12:00,67.0,-99.9,29.93,SW,225,0.0,0.0,-999,0.00,,,0.15,,2013-06-16 10:12:00,
2013-06-16 05:22:00,67.0,-99.9,29.93,SW,225,0.0,0.0,-999,0.00,,,0.15,,2013-06-16 10:22:00,
2013-06-16 05:33:00,67.0,-99.9,29.93,SW,225,0.0,0.0,-999,0.00,,,0.15,,2013-06-16 10:33:00,
2013-06-16 05:43:00,67.0,-99.9,29.94,SW,225,0.0,0.0,-999,0.00,,,0.15,,2013-06-16 10:43:00,
2013-06-16 05:54:00,67.0,-99.9,29.95,SW,225,5.0,12.0,-999,0.00,,,0.15,,2013-06-16 10:54:00,
2013-06-16 06:02:00,68.0,-99.9,29.95,SW,225,0.0,7.0,-999,0.00,,,0.15,,2013-06-16 11:02:00,
2013-06-16 06:12:00,67.0,-99.9,29.94,SW,225,0.0,0.0,-999,0.01,,,0.16,,2013-06-16 11:12:00,
2013-06-16 06:22:00,67.0,-99.9,29.93,SW,225,0.0,0.0,-999,0.01,,,0.16,,2013-06-16 11:22:00,
2013-06-16 06:34:00,67.0,-99.9,29.95,SW,225,0.0,0.0,-999,0.01,,,0.16,,2013-06-16 11:34:00,
2013-06-16 06:43:00,67.0,-99.9,29.95,SW,225,0.0,0.0,-999,0.02,,,0.17,,2013-06-16 11:43:00,
2013-06-16 06:53:00,68.0,-99.9,29.96,SW,225,0.0,0.0,-999,0.02,,,0.17,,2013-06-16 11:53:00,
2013-06-16 07:02:00,68.0,-99.9,29.96,SW,225,0.0,0.0,-999,0.02,,,0.17,,2013-06-16 12:02:00,
2013-06-16 07:12:00,68.0,-99.9,29.96,SW,225,0.0,0.0,-999,0.01,,,0.17,,2013-06-16 12:12:00,
2013-06-16 07:22:00,69.0,-99.9,29.96,SW,225,0.0,0.0,-999,0.01,,,0.17,,2013-06-16 12:22:00,
2013-06-16 07:33:00,69.0,-99.9,29.96,SW,225,0.0,0.0,-999,0.01,,,0.17,,2013-06-16 12:33:00,
2013-06-16 07:43:00,68.0,-99.9,29.96,SW,225,0.0,0.0,-999,0.00,,,0.17,,2013-06-16 12:43:00,
2013-06-16 07:53:00,68.0,-99.9,29.96,SW,225,0.0,0.0,-999,0.00,,,0.17,,2013-06-16 12:53:00,
2013-06-16 08:02:00,68.0,-99.9,29.96,SW,225,0.0,0.0,-999,0.00,,,0.17,,2013-06-16 13:02:00,
2013-06-16 08:12:00,68.0,-99.9,29.96,SW,225,0.0,0.0,-999,0.00,,,0.17,,2013-06-16 13:12:00,
2013-06-16 08:22:00,69.0,-99.9,29.96,SW,225,0.0,0.0,-999,0.00,,,0.17,,2013-06-16 13:22:00,
2013-06-16 08:34:00,68.0,-99.9,29.96,SW,225,0.0,0.0,-999,0.00,,,0.17,,2013-06-16 13:34:00,
2013-06-16 08:43:00,69.0,-99.9,29.96,SW,225,0.0,0.0,-999,0.00,,,0.17,,2013-06-16 13:43:00,
2013-06-16 08:54:00,70.0,-99.9,29.96,SW,225,0.0,0.0,-999,0.00,,,0.17,,2013-06-16 13:54:00,
2013-06-16 09:02:00,70.0,-99.9,29.96,SW,225,9.0,14.0,-999,0.00,,,0.17,,2013-06-16 14:02:00,
2013-06-16 09:12:00,70.0,-99.9,29.96,SW,225,9.0,15.0,-999,0.00,,,0.17,,2013-06-16 14:12:00,
2013-06-16 09:23:00,72.0,-99.9,29.95,SW,225,8.0,14.0,-999,0.00,,,0.17,,2013-06-16 14:23:00,
2013-06-16 09:34:00,71.0,-99.9,29.94,SW,225,10.0,15.0,-999,0.00,,,0.17,,2013-06-16 14:34:00,
2013-06-16 09:44:00,72.0,-99.9,29.94,WSW,248,9.0,15.0,-999,0.00,,,0.17,,2013-06-16 14:44:00,
2013-06-16 09:53:00,72.0,-99.9,29.94,SW,225,10.0,16.0,-999,0.00,,,0.17,,2013-06-16 14:53:00,
2013-06-16 10:02:00,73.0,-99.9,29.94,SW,225,9.0,16.0,-999,0.00,,,0.17,,2013-06-16 15:02:00,
2013-06-16 10:12:00,74.0,-99.9,29.94,WSW,248,8.0,15.0,-999,0.00,,,0.17,,2013-06-16 15:12:00,
2013-06-16 10:23:00,73.0,-99.9,29.93,WSW,248,10.0,16.0,-999,0.00,,,0.17,,2013-06-16 15:23:00,
2013-06-16 10:34:00,74.0,-99.9,29.93,WSW,248,8.0,16.0,-999,0.00,,,0.17,,2013-06-16 15:34:00,
2013-06-16 10:43:00,75.0,-99.9,29.94,WSW,248,8.0,14.0,-999,0.00,,,0.17,,2013-06-16 15:43:00,
2013-06-16 10:53:00,75.0,-99.9,29.94,WSW,248,7.0,13.0,-999,0.00,,,0.17,,2013-06-16 15:53:00,
2013-06-16 11:02:00,76.0,-99.9,29.94,SW,225,10.0,15.0,-999,0.00,,,0.17,,2013-06-16 16:02:00,
2013-06-16 11:12:00,78.0,-99.9,29.93,West,270,7.0,16.0,-999,0.00,,,0.17,,2013-06-16 16:12:00,
2013-06-16 11:23:00,77.0,-99.9,29.93,WSW,248,7.0,13.0,-999,0.00,,,0.17,,2013-06-16 16:23:00,
2013-06-16 11:33:00,76.0,-99.9,29.93,WSW,248,9.0,15.0,-999,0.00,,,0.17,,2013-06-16 16:33:00,
2013-06-16 11:43:00,77.0,-99.9,29.94,WSW,248,8.0,14.0,-999,0.00,,,0.17,,2013-06-16 16:43:00,
2013-06-16 11:53:00,77.0,-99.9,29.94,SW,225,9.0,18.0,-999,0.00,,,0.17,,2013-06-16 16:53:00,
2013-06-16 12:02:00,76.0,-99.9,29.94,WSW,248,8.0,16.0,-999,0.00,,,0.17,,2013-06-16 17:02:00,
2013-06-16 12:12:00,76.0,-99.9,29.95,West,270,8.0,15.0,-999,0.00,,,0.17,,2013-06-16 17:12:00,
2013-06-16 12:22:00,74.0,-99.9,29.95,West,270,8.0,13.0,-999,0.00,,,0.17,,2013-06-16 17:22:00,
2013-06-16 12:34:00,72.0,-99.9,29.95,SW,225,12.0,21.0,-999,0.00,,,0.17,,2013-06-16 17:34:00,
2013-06-16 12:43:00,72.0,-99.9,29.95,WSW,248,12.0,18.0,-999,0.00,,,0.17,,2013-06-16 17:43:00,
2013-06-16 12:53:00,74.0,-99.9,29.93,SW,225,13.0,16.0,-999,0.00,,,0.17,,2013-06-16 17:53:00,
2013-06-16 13:02:00,75.0,-99.9,29.94,SW,225,9.0,18.0,-999,0.00,,,0.17,,2013-06-16 18:02:00,
2013-06-16 13:12:00,77.0,-99.9,29.94,SW,225,14.0,18.0,-999,0.00,,,0.17,,2013-06-16 18:12:00,
2013-06-16 13:22:00,77.0,-99.9,29.94,SW,225,16.0,21.0,-999,0.00,,,0.17,,2013-06-16 18:22:00,
2013-06-16 13:34:00,77.0,-99.9,29.94,SW,225,12.0,22.0,-999,0.00,,,0.17,,2013-06-16 18:34:00,
2013-06-16 13:43:00,77.0,-99.9,29.93,SW,225,16.0,23.0,-999,0.00,,,0.17,,2013-06-16 18:43:00,
2013-06-16 13:52:00,78.0,-99.9,29.94,SW,225,16.0,24.0,-999,0.00,,,0.17,,2013-06-16 18:52:00,
2013-06-16 14:02:00,78.0,-99.9,29.94,SW,225,13.0,23.0,-999,0.00,,,0.17,,2013-06-16 19:02:00,
2013-06-16 14:12:00,77.0,-99.9,29.94,SW,225,13.0,23.0,-999,0.00,,,0.17,,2013-06-16 19:12:00,
2013-06-16 14:22:00,79.0,-99.9,29.94,SSW,203,12.0,20.0,-999,0.00,,,0.17,,2013-06-16 19:22:00,
2013-06-16 14:34:00,77.0,-99.9,29.94,SW,225,14.0,17.0,-999,0.00,,,0.17,,2013-06-16 19:34:00,
2013-06-16 14:43:00,77.0,-99.9,29.94,SW,225,12.0,17.0,-999,0.00,,,0.17,,2013-06-16 19:43:00,
2013-06-16 14:54:00,77.0,-99.9,29.95,SW,225,12.0,17.0,-999,0.00,,,0.17,,2013-06-16 19:54:00,
2013-06-16 15:02:00,77.0,-99.9,29.94,SW,225,12.0,18.0,-999,0.00,,,0.17,,2013-06-16 20:02:00,
2013-06-16 15:12:00,79.0,-99.9,29.94,SW,225,9.0,18.0,-999,0.00,,,0.17,,2013-06-16 20:12:00,
2013-06-16 15:22:00,78.0,-99.9,29.93,WSW,248,9.0,15.0,-999,0.00,,,0.17,,2013-06-16 20:22:00,
2013-06-16 15:34:00,78.0,-99.9,29.93,WSW,248,10.0,16.0,-999,0.00,,,0.17,,2013-06-16 20:34:00,
2013-06-16 15:43:00,79.0,-99.9,29.93,SW,225,9.0,16.0,-999,0.00,,,0.17,,2013-06-16 20:43:00,
2013-06-16 15:53:00,82.0,-99.9,29.93,SSW,203,9.0,14.0,-999,0.00,,,0.17,,2013-06-16 20:53:00,
2013-06-16 16:02:00,80.0,-99.9,29.93,SW,225,9.0,16.0,-999,0.00,,,0.17,,2013-06-16 21:02:00,
2013-06-16 16:11:00,81.0,-99.9,29.92,SW,225,9.0,17.0,-999,0.00,,,0.17,,2013-06-16 21:11:00,
2013-06-16 16:22:00,83.0,-99.9,29.92,WSW,248,9.0,16.0,-999,0.00,,,0.17,,2013-06-16 21:22:00,
2013-06-16 16:33:00,83.0,-99.9,29.92,SW,225,9.0,14.0,-999,0.00,,,0.17,,2013-06-16 21:33:00,
2013-06-16 16:42:00,83.0,-99.9,29.92,SW,225,9.0,16.0,-999,0.00,,,0.17,,2013-06-16 21:42:00,
2013-06-16 16:53:00,85.0,-99.9,29.91,SW,225,8.0,15.0,-999,0.00,,,0.17,,2013-06-16 21:53:00,
2013-06-16 17:02:00,84.0,-99.9,29.91,WSW,248,9.0,14.0,-999,0.00,,,0.17,,2013-06-16 22:02:00,
2013-06-16 17:12:00,85.0,-99.9,29.91,SW,225,12.0,15.0,-999,0.00,,,0.17,,2013-06-16 22:12:00,
2013-06-16 17:22:00,81.0,-99.9,29.91,SW,225,7.0,14.0,-999,0.00,,,0.17,,2013-06-16 22:22:00,
2013-06-16 17:32:00,80.0,-99.9,29.91,WSW,248,7.0,14.0,-999,0.00,,,0.17,,2013-06-16 22:32:00,
2013-06-16 17:42:00,84.0,-99.9,29.91,WSW,248,7.0,13.0,-999,0.00,,,0.17,,2013-06-16 22:42:00,
2013-06-16 17:52:00,83.0,-99.9,29.90,WSW,248,8.0,14.0,-999,0.00,,,0.17,,2013-06-16 22:52:00,
2013-06-16 18:02:00,86.0,-99.9,29.90,SW,225,7.0,13.0,-999,0.00,,,0.17,,2013-06-16 23:02:00,
2013-06-16 18:11:00,86.0,-99.9,29.90,WSW,248,8.0,13.0,-999,0.00,,,0.17,,2013-06-16 23:11:00,
2013-06-16 18:22:00,82.0,-99.9,29.90,SW,225,9.0,13.0,-999,0.00,,,0.17,,2013-06-16 23:22:00,
2013-06-16 18:32:00,82.0,-99.9,29.88,SW,225,7.0,12.0,-999,0.00,,,0.17,,2013-06-16 23:32:00,
2013-06-16 18:42:00,86.0,-99.9,29.90,SW,225,8.0,14.0,-999,0.00,,,0.17,,2013-06-16 23:42:00,
2013-06-16 18:52:00,83.0,-99.9,29.90,SW,225,7.0,13.0,-999,0.00,,,0.17,,2013-06-16 23:52:00,
2013-06-16 19:02:00,80.0,-99.9,29.90,SW,225,6.0,10.0,-999,0.00,,,0.17,,2013-06-17 00:02:00,
2013-06-16 19:12:00,86.0,-99.9,29.90,SW,225,7.0,13.0,-999,0.00,,,0.17,,2013-06-17 00:12:00,
2013-06-16 19:22:00,82.0,-99.9,29.90,SW,225,9.0,13.0,-999,0.00,,,0.17,,2013-06-17 00:22:00,
2013-06-16 19:32:00,84.0,-99.9,29.90,SW,225,8.0,13.0,-999,0.00,,,0.17,,2013-06-17 00:32:00,
2013-06-16 19:43:00,82.0,-99.9,29.90,SW,225,6.0,13.0,-999,0.00,,,0.17,,2013-06-17 00:43:00,
2013-06-16 19:53:00,78.0,-99.9,29.89,SW,225,7.0,10.0,-999,0.00,,,0.17,,2013-06-17 00:53:00,
2013-06-16 20:02:00,77.0,-99.9,29.90,SW,225,6.0,9.0,-999,0.00,,,0.17,,2013-06-17 01:02:00,
2013-06-16 20:12:00,76.0,-99.9,29.90,SW,225,6.0,8.0,-999,0.00,,,0.17,,2013-06-17 01:12:00,
2013-06-16 20:22:00,75.0,-99.9,29.89,SW,225,5.0,8.0,-999,0.00,,,0.17,,2013-06-17 01:22:00,
2013-06-16 20:32:00,75.0,-99.9,29.89,SW,225,3.0,7.0,-999,0.00,,,0.17,,2013-06-17 01:32:00,
2013-06-16 20:43:00,74.0,-99.9,29.90,SSW,203,2.0,3.0,-999,0.00,,,0.17,,2013-06-17 01:43:00,
2013-06-16 20:53:00,73.0,-99.9,29.90,South,180,0.0,3.0,-999,0.00,,,0.17,,2013-06-17 01:53:00,
2013-06-16 21:03:00,73.0,-99.9,29.91,South,180,0.0,0.0,-999,0.00,,,0.17,,2013-06-17 02:03:00,
2013-06-16 21:12:00,73.0,-99.9,29.90,SSW,203,5.0,5.0,-999,0.00,,,0.17,,2013-06-17 02:12:00,
2013-06-16 21:22:00,73.0,-99.9,29.91,SSW,203,5.0,5.0,-999,0.00,,,0.17,,2013-06-17 02:22:00,
2013-06-16 21:34:00,72.0,-99.9,29.91,SSW,203,5.0,6.0,-999,0.00,,,0.17,,2013-06-17 02:34:00,
2013-06-16 21:43:00,72.0,-99.9,29.91,SSW,203,3.0,5.0,-999,0.00,,,0.17,,2013-06-17 02:43:00,
2013-06-16 21:53:00,72.0,-99.9,29.91,SW,225,3.0,5.0,-999,0.00,,,0.17,,2013-06-17 02:53:00,
2013-06-16 22:02:00,72.0,-99.9,29.91,SSW,203,3.0,5.0,-999,0.00,,,0.17,,2013-06-17 03:02:00,
2013-06-16 22:12:00,71.0,-99.9,29.91,SSW,203,3.0,5.0,-999,0.00,,,0.17,,2013-06-17 03:12:00,
2013-06-16 22:22:00,71.0,-99.9,29.92,SSW,203,3.0,5.0,-999,0.00,,,0.17,,2013-06-17 03:22:00,
2013-06-16 22:33:00,71.0,-99.9,29.92,SSW,203,5.0,6.0,-999,0.00,,,0.17,,2013-06-17 03:33:00,
2013-06-16 22:44:00,71.0,-99.9,29.92,SSW,203,5.0,6.0,-999,0.00,,,0.17,,2013-06-17 03:44:00,
2013-06-16 22:54:00,71.0,-99.9,29.92,SSW,203,6.0,7.0,-999,0.00,,,0.17,,2013-06-17 03:54:00,
2013-06-16 23:02:00,71.0,-99.9,29.93,SSW,203,3.0,7.0,-999,0.00,,,0.16,,2013-06-17 04:02:00,
2013-06-16 23:12:00,70.0,-99.9,29.93,SSW,203,2.0,5.0,-999,0.00,,,0.16,,2013-06-17 04:12:00,
2013-06-16 23:23:00,70.0,-99.9,29.93,South,180,0.0,3.0,-999,0.00,,,0.15,,2013-06-17 04:23:00,
2013-06-16 23:34:00,70.0,-99.9,29.93,South,180,0.0,0.0,-999,0.00,,,0.15,,2013-06-17 04:34:00,
2013-06-16 23:43:00,70.0,-99.9,29.94,South,180,0.0,0.0,-999,0.00,,,0.14,,2013-06-17 04:43:00,
2013-06-16 23:53:00,70.0,-99.9,29.93,South,180,0.0,0.0,-999,0.00,,,0.13,,2013-06-17 04:53:00,